{"data":{"norad_id":63689,"intl_designator":"2025-086C","name":"HULIANWANG DIGUI-22","alt_names":[],"object_type":"PAYLOAD","status":"ACTIVE","operator":null,"country":"PRC","launch_date":"2025-04-28","launch_site_code":"WSC","launch_vehicle":null,"mission":null,"orbit_class":"UNKNOWN","rcs_meters":null,"size_class":null,"mass_kg":null,"dimensions":null,"purposes":[],"wikipedia_slug":null,"has_3d_model":false,"image_url":null,"decayed_at":null,"tle_current":{"epoch":"2026-05-25T03:34:07.076064Z","epoch_age_seconds":62488,"freshness":"FRESH","line1":"1 63689U 25086C   26145.14869301  .00000041  00000+0  61462-4 0  9990","line2":"2 63689  86.5027 320.8241 0001410  82.9336 277.1958 13.24408004 51819","mean_motion":13.24408004,"eccentricity":0.000141,"inclination_deg":86.5027,"raan_deg":320.8241,"arg_perigee_deg":82.9336,"mean_anomaly_deg":277.1958,"bstar":6.1462e-5,"rev_number":5181,"period_min":108.72782372584,"perigee_km":1166.8657719297,"apogee_km":1168.9937627581,"semimajor_km":7546.0667673439,"source":"CELESTRAK","updated_at":"2026-05-25T13:38:03.890333Z"}}}